Redgranite, WI (54970)

8:19 PM CDT on August 30, 2015 (GMT -0500)
Mt. Morris Township | | Change Station
CLOSE
Current Station
Personal Weather Station
Location: Wautoma, WI
Elevation: 912 ft
Nearby Weather Stations

Elev 912 ft 44.08 °N, 89.21 °W | Updated 1 minute ago

Clear
Clear
66.6 °F
Feels Like 66.6 °F
N
0.0
Wind Variable Wind from ESE

Today
High -- | Low -- °F
--% Chance of Precip.
Yesterday
High -- | Low -- °F
Precip. -- in
6:16 AM 7:36 PM
Full, 98% visible
Pressure 29.99 in
Visibility 10.0 miles
Clouds Clear
Dew Point 65 °F
Humidity 95%
Rainfall 0.00 in
Snow Depth Not available.
UV 0 out of 12
Pollen 10.00 out of 12
Air Quality Not available.
Flu Activity Not available.
METAR KY50 310056Z AUTO 00000KT 10SM CLR 21/19 A3000 RMK AO2 TSNO T02050194 SLP153
Pressure 29.99 in
Visibility 10.0 miles
Clouds Clear
Dew Point 65 °F
Humidity 95%
Rainfall 0.00 in
Snow Depth Not available.
UV 0 out of 12
Pollen 10.00 out of 12
Air Quality Not available.
Flu Activity Not available.
METAR KY50 310056Z AUTO 00000KT 10SM CLR 21/19 A3000 RMK AO2 TSNO T02050194 SLP153

10-Day Weather Forecast

×

Almanac

Astronomy

Aug. 30, 2015 Rise Set
Actual Time
Civil Twilight
Nautical Twilight
Astronomical Twilight
Moon
Length of Visible Light
Length of Day
Tomorrow will be .
, % of the Moon is Illuminated

Today's Extremes

State Highs State Lows

Community

WunderPhotos

Upload Photos

1,851,131 photos uploaded!

WunderBlogs® & News

Nearby

Air Quality

  Air Quality AQ Index Pollutant
Not available.

Snow Depth

Station Depth Elevation

Earthquake Activity

City Distance Mag. Time & Date
Minimum magnitude displayed is 2.5.

Coastal Water Temperatures

Place Temperature

Stations

Nearby Weather Stations

Station Location Temp. Windchill Dew Point Humidity Wind Precip. Elev Updated Type